Tracking 19847 objects as of 16-Sep-2019
HD Live streaming from Space Station
objects crossing your sky now

FLOCK 3P 67

Track FLOCK 3P 67 now!
10-day predictions
FLOCK 3P 67 is classified as:


NORAD ID: 42002
Int'l Code: 2017-008BG
Perigee: 487.7 km
Apogee: 497.6 km
Inclination: 97.4 °
Period: 94.3 minutes
Semi major axis: 6863 km
RCS: Unknown
Launch date: February 15, 2017
Source: United States (US)
Launch site: SRIHARIKOTA (SRI)
aabbcc
Your satellite tracking list
Your tracking list is empty




NASA's NSSDC Master Catalog

Two Line Element Set (TLE):
1 42002U 17008BG  19258.75368580 +.00001675 +00000-0 +66438-4 0  9991
2 42002 097.3997 325.5053 0007223 190.5348 169.5741 15.26753821143585
Source of the keplerian elements: AFSPC